STARLINK-3158 (49432 NORAD) Tracking and Keplerian Element Data

This shows tracking and keplerian element data for the satellite.

Feedback or suggestion? Click here.




ElementValue
Catalog49432
NameSTARLINK-3158
Epoch Orbit486
Epoch Day340.25001157
Epoch Year2021
RAAN20.5156
Inclination53.2182
Eccentricity0.0001179
Argument of Perigee5.2227
Mean Anonmoly187.3433
Mean Motion15.73202323
Decay Rate-1.225E-05
L11 49432U 21104AA 21340.25001157 -.00001225 00000+0 -43119-5 0 9995
L22 49432 53.2182 20.5156 0001179 5.2227 187.3433 15.73202323 4865

Live tracking and technical data element details for STARLINK-3158 (NORAD 49432). STARLINK-3158 can be tracked NOW for your location showing map with azimuth and elevation plus other details from your city location.

Track the satellite on the map from your city or location and see movement details for azimuth, elevation, latitude, longitude, range, height, and movement on the map or in text.







IsCatalogInMostPopularTable: catalog: 49432, numindb: 1
Update: records affected: 1



GetName: 49432 STARLINK-3158

Hit Count: updated at: Wed, 08 Dec 2021 16:30:49 GMT